Location: ??
(35.5052°N, 139.7262°E)
Time: 18:25:25
(UTC+00:00)

Cosmos 1932 - Pass Details

Date: 22 October 2021
Orbit: 943 x 987 km, 65.0° (Epoch: 01 December)

Event Time Altitude Azimuth Distance (km) Brightness Sun altitude
Rises 11:49:33 0° 319° (NW) 3,620 8.1 -47.2°
Reaches altitude 10° 11:52:24 10° 308° (NW) 2,676 7.3 -47.7°
Enters shadow 11:53:18 14° 303° (WNW) 2,409 7.0 -47.9°
